When you browse on this site, cookies collect data to enhance your experience and personalize the content and advertising you see.
Visit our Privacy Policy to learn more. By continuing to use the site, you agree to this use of cookies and data.
  • In Spain
  • List of Countries
  • For 7 days
  • Water Temperature
  • Weather Map
  • Weather Widgets
  • user-avatar
    Login

    Hourly Weather Winchester

    Today, 13 December, Friday

    Time Temperature Precipitation Wind Pressure Humidity
    00:00 +5°C° 0 mm 8 mps 724 mmHg 89%
    01:00 +5°C° 0.1 mm 9 mps 724 mmHg 86%
    02:00 +5°C° 0.1 mm 10 mps 724 mmHg 82%
    03:00 +3°C° 0.1 mm 10 mps 724 mmHg 79%
    04:00 +3°C° 0 mm 10 mps 725 mmHg 79%
    05:00 +3°C° 0 mm 10 mps 726 mmHg 80%
    06:00 +3°C° 0 mm 10 mps 727 mmHg 80%
    07:00 +3°C° 0 mm 10 mps 728 mmHg 79%
    08:00 +2°C° 0 mm 10 mps 729 mmHg 78%
    09:00 +2°C° 0 mm 9 mps 730 mmHg 76%
    10:00 +3°C° 0 mm 10 mps 731 mmHg 75%
    11:00 +3°C° 0 mm 10 mps 732 mmHg 73%
    12:00 +5°C° 0 mm 10 mps 733 mmHg 71%
    13:00 +5°C° 0 mm 10 mps 734 mmHg 72%
    14:00 +3°C° 0 mm 10 mps 734 mmHg 72%
    15:00 +3°C° 0 mm 9 mps 734 mmHg 72%
    16:00 +2°C° 0 mm 8 mps 734 mmHg 75%
    17:00 +3°C° 0 mm 7 mps 734 mmHg 77%
    18:00 +2°C° 0 mm 6 mps 734 mmHg 80%
    19:00 +3°C° 0.3 mm 5 mps 734 mmHg 84%
    20:00 +3°C° 0.3 mm 5 mps 733 mmHg 89%
    21:00 +4°C° 0.3 mm 4 mps 732 mmHg 93%
    22:00 +5°C° 0.5 mm 5 mps 732 mmHg 91%
    23:00 +5°C° 0.5 mm 7 mps 731 mmHg 88%

    Tomorrow, 14 December, Saturday

    Time Temperature Precipitation Wind Pressure Humidity
    00:00 +7°C° 0.5 mm 9 mps 731 mmHg 85%
    01:00 +6°C° 0.1 mm 8 mps 732 mmHg 84%
    02:00 +5°C° 0.1 mm 8 mps 733 mmHg 82%
    03:00 +4°C° 0.1 mm 8 mps 734 mmHg 80%
    04:00 +3°C° 0 mm 7 mps 735 mmHg 82%
    05:00 +3°C° 0 mm 7 mps 735 mmHg 84%
    06:00 +2°C° 0 mm 7 mps 736 mmHg 86%
    07:00 +2°C° 0.2 mm 7 mps 737 mmHg 88%
    08:00 +2°C° 0.2 mm 7 mps 737 mmHg 89%
    09:00 +2°C° 0.2 mm 6 mps 738 mmHg 91%
    10:00 +3°C° 0.4 mm 7 mps 738 mmHg 84%
    11:00 +4°C° 0.4 mm 8 mps 739 mmHg 77%
    12:00 +3°C° 0.4 mm 9 mps 740 mmHg 71%
    13:00 +4°C° 0 mm 8 mps 740 mmHg 71%
    14:00 +4°C° 0 mm 7 mps 740 mmHg 71%
    15:00 +4°C° 0 mm 6 mps 740 mmHg 71%
    16:00 +4°C° 0 mm 6 mps 739 mmHg 74%
    17:00 +4°C° 0 mm 6 mps 738 mmHg 77%
    18:00 +4°C° 0 mm 7 mps 737 mmHg 79%
    19:00 +4°C° 0.8 mm 8 mps 737 mmHg 81%
    20:00 +5°C° 0.8 mm 9 mps 736 mmHg 83%
    21:00 +6°C° 0.8 mm 10 mps 735 mmHg 85%
    22:00 +5°C° 0.1 mm 9 mps 736 mmHg 83%
    23:00 +3°C° 0.1 mm 9 mps 736 mmHg 81%

    Day after tomorrow, 15 December, Sunday

    Time Temperature Precipitation Wind Pressure Humidity
    00:00 +2°C° 0.1 mm 9 mps 736 mmHg 78%
    01:00 +2°C° 0 mm 9 mps 737 mmHg 76%
    02:00 +2°C° 0 mm 9 mps 738 mmHg 73%
    03:00 +1°C° 0 mm 10 mps 739 mmHg 70%
    04:00 +1°C° 0 mm 8 mps 739 mmHg 72%
    05:00 +2°C° 0 mm 7 mps 740 mmHg 74%
    06:00 +2°C° 0 mm 6 mps 741 mmHg 77%
    07:00 +2°C° 0.1 mm 6 mps 742 mmHg 77%
    08:00 +3°C° 0.1 mm 7 mps 742 mmHg 78%
    09:00 +3°C° 0.1 mm 7 mps 742 mmHg 79%
    10:00 +4°C° 0.3 mm 7 mps 743 mmHg 77%
    11:00 +5°C° 0.3 mm 8 mps 743 mmHg 74%
    12:00 +5°C° 0.3 mm 8 mps 743 mmHg 72%
    13:00 +5°C° 0.2 mm 8 mps 743 mmHg 73%
    14:00 +5°C° 0.2 mm 7 mps 743 mmHg 75%
    15:00 +5°C° 0.2 mm 6 mps 742 mmHg 76%
    16:00 +5°C° 0.3 mm 7 mps 742 mmHg 79%
    17:00 +5°C° 0.3 mm 7 mps 742 mmHg 81%
    18:00 +5°C° 0.3 mm 7 mps 742 mmHg 84%
    19:00 +4°C° 0.6 mm 6 mps 742 mmHg 84%
    20:00 +4°C° 0.6 mm 6 mps 742 mmHg 85%
    21:00 +4°C° 0.6 mm 6 mps 742 mmHg 85%
    22:00 +4°C° 0.1 mm 6 mps 742 mmHg 84%
    23:00 +4°C° 0.1 mm 6 mps 743 mmHg 82%

    16 December, Monday

    Time Temperature Precipitation Wind Pressure Humidity
    00:00 +4°C° 0.1 mm 6 mps 743 mmHg 80%
    01:00 +4°C° 0.1 mm 6 mps 743 mmHg 80%
    02:00 +4°C° 0.1 mm 6 mps 743 mmHg 80%
    03:00 +4°C° 0.1 mm 6 mps 743 mmHg 80%
    04:00 +4°C° 0 mm 6 mps 743 mmHg 80%
    05:00 +4°C° 0 mm 6 mps 743 mmHg 80%
    06:00 +4°C° 0 mm 6 mps 743 mmHg 80%
    07:00 +4°C° 0 mm 6 mps 743 mmHg 81%
    08:00 +4°C° 0 mm 6 mps 744 mmHg 81%
    09:00 +6°C° 0 mm 5 mps 744 mmHg 82%
    10:00 +6°C° 0 mm 5 mps 744 mmHg 80%
    11:00 +7°C° 0 mm 5 mps 744 mmHg 79%
    12:00 +7°C° 0 mm 4 mps 745 mmHg 77%
    13:00 +7°C° 0 mm 4 mps 745 mmHg 78%
    14:00 +7°C° 0 mm 3 mps 745 mmHg 79%
    15:00 +7°C° 0 mm 3 mps 745 mmHg 80%
    16:00 +6°C° 0 mm 2 mps 745 mmHg 81%
    17:00 +5°C° 0 mm 2 mps 745 mmHg 82%
    18:00 +4°C° 0 mm 2 mps 745 mmHg 82%
    19:00 +4°C° 0 mm 2 mps 746 mmHg 83%
    20:00 +5°C° 0 mm 1 mps 746 mmHg 83%
    21:00 +5°C° 0 mm 1 mps 747 mmHg 83%
    22:00 +5°C° 0 mm 1 mps 747 mmHg 84%
    23:00 +5°C° 0 mm 1 mps 747 mmHg 85%

    17 December, Tuesday

    Time Temperature Precipitation Wind Pressure Humidity
    00:00 +5°C° 0 mm 1 mps 747 mmHg 86%
    01:00 +5°C° 0 mm 1 mps 747 mmHg 86%
    02:00 +5°C° 0 mm 1 mps 747 mmHg 87%
    03:00 +5°C° 0 mm 1 mps 747 mmHg 88%
    04:00 +3°C° 0 mm 2 mps 747 mmHg 87%
    05:00 +3°C° 0 mm 2 mps 747 mmHg 87%
    06:00 +3°C° 0 mm 2 mps 747 mmHg 87%
    07:00 +3°C° 0 mm 2 mps 747 mmHg 86%
    08:00 +3°C° 0 mm 2 mps 748 mmHg 85%
    09:00 +3°C° 0 mm 2 mps 748 mmHg 85%
    10:00 +4°C° 0 mm 2 mps 748 mmHg 82%
    11:00 +4°C° 0 mm 2 mps 748 mmHg 80%
    12:00 +5°C° 0 mm 2 mps 748 mmHg 77%
    13:00 +5°C° 0 mm 2 mps 748 mmHg 79%
    14:00 +5°C° 0 mm 2 mps 749 mmHg 80%
    15:00 +4°C° 0 mm 2 mps 749 mmHg 81%
    16:00 +4°C° 0 mm 2 mps 749 mmHg 83%
    17:00 +3°C° 0 mm 2 mps 749 mmHg 84%
    18:00 +3°C° 0 mm 2 mps 750 mmHg 85%
    19:00 +2°C° 0 mm 2 mps 750 mmHg 85%
    20:00 +2°C° 0 mm 2 mps 751 mmHg 85%
    21:00 +2°C° 0 mm 1 mps 751 mmHg 85%
    22:00 +2°C° 0 mm 1 mps 751 mmHg 85%
    23:00 +2°C° 0 mm 1 mps 751 mmHg 84%

    18 December, Wednesday

    Time Temperature Precipitation Wind Pressure Humidity
    00:00 +2°C° 0 mm 1 mps 752 mmHg 84%
    01:00 +2°C° 0 mm 1 mps 752 mmHg 83%
    02:00 +2°C° 0 mm 1 mps 752 mmHg 83%
    03:00 +1°C° 0 mm 0 mps 752 mmHg 82%
    04:00 +1°C° 0 mm 0 mps 752 mmHg 82%
    05:00 +1°C° 0 mm 0 mps 753 mmHg 81%
    06:00 +1°C° 0 mm 0 mps 753 mmHg 80%
    07:00 +2°C° 0 mm 1 mps 753 mmHg 78%
    08:00 +2°C° 0 mm 1 mps 754 mmHg 77%
    09:00 +3°C° 0 mm 1 mps 754 mmHg 76%
    10:00 +3°C° 0 mm 2 mps 754 mmHg 74%
    11:00 +4°C° 0 mm 2 mps 754 mmHg 71%
    12:00 +4°C° 0 mm 3 mps 754 mmHg 69%
    13:00 +4°C° 0 mm 3 mps 754 mmHg 72%
    14:00 +4°C° 0 mm 3 mps 753 mmHg 75%
    15:00 +3°C° 0 mm 3 mps 753 mmHg 78%
    16:00 +3°C° 0 mm 3 mps 753 mmHg 80%
    17:00 +2°C° 0 mm 3 mps 752 mmHg 83%
    18:00 0°C° 0 mm 4 mps 752 mmHg 86%
    19:00 0°C° 0 mm 4 mps 752 mmHg 87%
    20:00 0°C° 0 mm 4 mps 752 mmHg 88%
    21:00 0°C° 0 mm 4 mps 752 mmHg 89%
    22:00 0°C° 0 mm 4 mps 751 mmHg 89%
    23:00 0°C° 0 mm 5 mps 751 mmHg 90%
    Show more